Time,TemperatureF,DewpointF,PressureIn,WindDirection,WindDirectionDegrees,WindSpeedMPH,WindSpeedGustMPH,Humidity,HourlyPrecipIn,Conditions,Clouds,dailyrainin,SoftwareType,DateUTC
2013-09-28 00:05:00,54.1,52.4,29.85,SE,136,2.0,7.0,94,0.00,,,0.00,Wunderground v.1.15,2013-09-28 07:05:00,
2013-09-28 00:10:00,54.1,52.4,29.85,SE,136,2.0,3.0,94,0.00,,,0.00,Wunderground v.1.15,2013-09-28 07:10:00,
2013-09-28 00:15:00,54.1,52.4,29.85,SSE,149,2.0,3.0,94,0.00,,,0.00,Wunderground v.1.15,2013-09-28 07:15:00,
2013-09-28 00:25:00,54.1,52.4,29.84,SE,134,2.0,3.0,94,0.00,,,0.00,Wunderground v.1.15,2013-09-28 07:25:00,
2013-09-28 00:30:00,54.2,52.5,29.84,SE,133,2.0,2.0,94,0.00,,,0.01,Wunderground v.1.15,2013-09-28 07:30:00,
2013-09-28 00:35:00,54.2,52.5,29.84,SE,130,2.0,2.0,94,0.00,,,0.01,Wunderground v.1.15,2013-09-28 07:35:00,
2013-09-28 00:40:00,54.3,52.6,29.83,SE,131,2.0,3.0,94,0.00,,,0.01,Wunderground v.1.15,2013-09-28 07:40:00,
2013-09-28 00:45:00,54.3,52.6,29.83,SE,131,1.0,3.0,94,0.00,,,0.01,Wunderground v.1.15,2013-09-28 07:45:00,
2013-09-28 00:50:00,54.3,52.6,29.83,SE,131,2.0,2.0,94,0.00,,,0.01,Wunderground v.1.15,2013-09-28 07:50:00,
2013-09-28 01:00:00,54.4,52.7,29.83,SSE,148,2.0,3.0,94,0.00,,,0.01,Wunderground v.1.15,2013-09-28 08:00:00,
2013-09-28 01:05:00,54.5,52.8,29.83,SSE,149,2.0,3.0,94,0.00,,,0.01,Wunderground v.1.15,2013-09-28 08:05:00,
2013-09-28 01:10:00,54.5,52.8,29.82,SE,130,2.0,4.0,94,0.00,,,0.01,Wunderground v.1.15,2013-09-28 08:10:00,
2013-09-28 01:15:00,54.6,52.9,29.82,ESE,122,2.0,4.0,94,0.00,,,0.01,Wunderground v.1.15,2013-09-28 08:15:00,
2013-09-28 01:20:00,54.6,52.9,29.82,SE,127,3.0,3.0,94,0.00,,,0.01,Wunderground v.1.15,2013-09-28 08:20:00,
2013-09-28 01:25:00,54.7,53.0,29.81,SE,125,2.0,3.0,94,0.00,,,0.01,Wunderground v.1.15,2013-09-28 08:25:00,
2013-09-28 01:30:00,54.7,53.0,29.81,SE,125,2.0,2.0,94,0.00,,,0.01,Wunderground v.1.15,2013-09-28 08:30:00,
2013-09-28 01:35:00,54.8,53.1,29.81,SE,124,2.0,3.0,94,0.00,,,0.01,Wunderground v.1.15,2013-09-28 08:35:00,
2013-09-28 01:40:00,54.8,53.1,29.81,ESE,123,2.0,2.0,94,0.00,,,0.01,Wunderground v.1.15,2013-09-28 08:40:00,
2013-09-28 01:50:00,54.9,53.2,29.80,ESE,119,2.0,2.0,94,0.00,,,0.01,Wunderground v.1.15,2013-09-28 08:50:00,
2013-09-28 01:55:00,54.9,53.2,29.80,ESE,115,2.0,3.0,94,0.00,,,0.01,Wunderground v.1.15,2013-09-28 08:55:00,
2013-09-28 02:00:00,55.0,53.3,29.80,ESE,115,1.0,1.0,94,0.00,,,0.01,Wunderground v.1.15,2013-09-28 09:00:00,
2013-09-28 02:05:00,55.1,53.4,29.80,ESE,115,2.0,2.0,94,0.00,,,0.01,Wunderground v.1.15,2013-09-28 09:05:00,
2013-09-28 02:15:00,55.1,53.4,29.81,ESE,116,2.0,2.0,94,0.17,,,0.04,Wunderground v.1.15,2013-09-28 09:15:00,
2013-09-28 02:20:00,55.1,53.4,29.80,SSE,155,2.0,2.0,94,0.14,,,0.05,Wunderground v.1.15,2013-09-28 09:20:00,
2013-09-28 02:25:00,55.2,53.5,29.80,SSE,155,2.0,3.0,94,0.14,,,0.06,Wunderground v.1.15,2013-09-28 09:25:00,
2013-09-28 02:30:00,55.2,53.5,29.79,SE,129,2.0,2.0,94,0.19,,,0.08,Wunderground v.1.15,2013-09-28 09:30:00,
2013-09-28 02:35:00,55.2,53.5,29.78,ESE,117,3.0,5.0,94,0.11,,,0.08,Wunderground v.1.15,2013-09-28 09:35:00,
2013-09-28 02:40:00,55.3,53.6,29.78,ESE,123,3.0,3.0,94,0.06,,,0.08,Wunderground v.1.15,2013-09-28 09:40:00,
2013-09-28 02:50:00,55.4,53.7,29.77,SE,125,3.0,3.0,94,0.13,,,0.10,Wunderground v.1.15,2013-09-28 09:50:00,
2013-09-28 02:55:00,55.4,53.7,29.76,ESE,111,3.0,3.0,94,0.07,,,0.10,Wunderground v.1.15,2013-09-28 09:55:00,
2013-09-28 03:05:00,55.5,53.8,29.76,ESE,105,2.0,4.0,94,0.00,,,0.10,Wunderground v.1.15,2013-09-28 10:05:00,
2013-09-28 03:10:00,55.5,53.8,29.75,ESE,109,2.0,2.0,94,0.00,,,0.10,Wunderground v.1.15,2013-09-28 10:10:00,
2013-09-28 03:15:00,55.6,53.9,29.75,ESE,102,2.0,2.0,94,0.00,,,0.10,Wunderground v.1.15,2013-09-28 10:15:00,
2013-09-28 03:20:00,55.7,54.0,29.75,SE,138,3.0,5.0,94,0.00,,,0.10,Wunderground v.1.15,2013-09-28 10:20:00,
2013-09-28 03:25:00,55.7,54.0,29.75,ESE,121,3.0,5.0,94,0.00,,,0.10,Wunderground v.1.15,2013-09-28 10:25:00,
2013-09-28 03:30:00,55.7,54.0,29.75,ESE,119,4.0,4.0,94,0.00,,,0.10,Wunderground v.1.15,2013-09-28 10:30:00,
2013-09-28 03:40:00,55.8,54.1,29.74,SE,142,4.0,4.0,94,0.00,,,0.10,Wunderground v.1.15,2013-09-28 10:40:00,
2013-09-28 03:45:00,55.8,54.1,29.74,SE,141,4.0,4.0,94,0.00,,,0.10,Wunderground v.1.15,2013-09-28 10:45:00,
2013-09-28 03:50:00,55.8,54.1,29.74,SE,128,4.0,5.0,94,0.00,,,0.10,Wunderground v.1.15,2013-09-28 10:50:00,
2013-09-28 03:55:00,55.9,54.2,29.74,SE,138,4.0,5.0,94,0.00,,,0.11,Wunderground v.1.15,2013-09-28 10:55:00,
2013-09-28 04:00:00,55.9,54.2,29.74,SE,132,3.0,3.0,94,0.00,,,0.11,Wunderground v.1.15,2013-09-28 11:00:00,
2013-09-28 04:05:00,55.9,54.2,29.73,SE,132,2.0,4.0,94,0.25,,,0.13,Wunderground v.1.15,2013-09-28 11:05:00,
2013-09-28 04:10:00,56.0,54.3,29.73,SE,128,2.0,4.0,94,0.27,,,0.16,Wunderground v.1.15,2013-09-28 11:10:00,
2013-09-28 04:20:00,56.0,54.3,29.72,SE,137,3.0,4.0,94,0.10,,,0.18,Wunderground v.1.15,2013-09-28 11:20:00,
2013-09-28 04:25:00,56.1,54.4,29.72,SSE,160,3.0,4.0,94,0.10,,,0.18,Wunderground v.1.15,2013-09-28 11:25:00,
2013-09-28 04:30:00,56.2,54.5,29.71,SE,141,3.0,3.0,94,0.05,,,0.18,Wunderground v.1.15,2013-09-28 11:30:00,
2013-09-28 04:35:00,56.2,54.5,29.71,SE,144,3.0,4.0,94,0.05,,,0.19,Wunderground v.1.15,2013-09-28 11:35:00,
2013-09-28 04:40:00,56.3,54.6,29.71,SE,136,4.0,4.0,94,0.05,,,0.19,Wunderground v.1.15,2013-09-28 11:40:00,
2013-09-28 04:45:00,56.4,54.7,29.70,SSE,153,3.0,4.0,94,0.05,,,0.19,Wunderground v.1.15,2013-09-28 11:45:00,
2013-09-28 04:50:00,56.4,54.7,29.70,SE,128,3.0,3.0,94,0.04,,,0.20,Wunderground v.1.15,2013-09-28 11:50:00,
2013-09-28 05:00:00,56.7,55.0,29.70,South,171,4.0,4.0,94,0.05,,,0.21,Wunderground v.1.15,2013-09-28 12:00:00,
2013-09-28 05:05:00,56.8,55.1,29.70,South,180,5.0,9.0,94,0.05,,,0.21,Wunderground v.1.15,2013-09-28 12:05:00,
2013-09-28 05:10:00,56.8,55.1,29.69,SSE,162,4.0,5.0,94,0.05,,,0.21,Wunderground v.1.15,2013-09-28 12:10:00,
2013-09-28 05:15:00,56.9,55.2,29.69,SE,134,3.0,6.0,94,0.04,,,0.21,Wunderground v.1.15,2013-09-28 12:15:00,
2013-09-28 05:20:00,57.0,55.3,29.69,SE,133,4.0,4.0,94,0.04,,,0.22,Wunderground v.1.15,2013-09-28 12:20:00,
2013-09-28 05:25:00,57.0,55.3,29.69,ESE,123,4.0,4.0,94,0.04,,,0.22,Wunderground v.1.15,2013-09-28 12:25:00,
2013-09-28 05:30:00,57.1,55.4,29.69,SSE,154,3.0,3.0,94,0.04,,,0.22,Wunderground v.1.15,2013-09-28 12:30:00,
2013-09-28 05:35:00,57.1,55.4,29.68,SSE,147,3.0,3.0,94,0.04,,,0.23,Wunderground v.1.15,2013-09-28 12:35:00,
2013-09-28 05:40:00,57.1,55.4,29.68,South,178,4.0,4.0,94,0.11,,,0.24,Wunderground v.1.15,2013-09-28 12:40:00,
2013-09-28 05:50:00,57.2,55.5,29.67,SSE,167,4.0,5.0,94,0.34,,,0.27,Wunderground v.1.15,2013-09-28 12:50:00,
2013-09-28 05:55:00,57.2,55.5,29.67,SE,129,4.0,5.0,94,0.36,,,0.30,Wunderground v.1.15,2013-09-28 12:55:00,
2013-09-28 06:00:00,57.3,55.6,29.67,SE,134,5.0,8.0,94,0.21,,,0.32,Wunderground v.1.15,2013-09-28 13:00:00,
2013-09-28 06:05:00,57.3,55.6,29.67,SE,141,5.0,8.0,94,0.10,,,0.32,Wunderground v.1.15,2013-09-28 13:05:00,
2013-09-28 06:10:00,57.4,55.7,29.67,South,171,4.0,4.0,94,0.19,,,0.34,Wunderground v.1.15,2013-09-28 13:10:00,
2013-09-28 06:15:00,57.4,55.7,29.66,SSE,157,4.0,5.0,94,0.20,,,0.35,Wunderground v.1.15,2013-09-28 13:15:00,
2013-09-28 06:20:00,57.4,55.7,29.66,SE,140,3.0,7.0,94,0.14,,,0.36,Wunderground v.1.15,2013-09-28 13:20:00,
2013-09-28 06:30:00,57.5,55.8,29.66,SSE,165,3.0,3.0,94,0.05,,,0.37,Wunderground v.1.15,2013-09-28 13:30:00,
2013-09-28 06:40:00,57.5,55.8,29.66,SE,143,4.0,4.0,94,0.08,,,0.38,Wunderground v.1.15,2013-09-28 13:40:00,
2013-09-28 06:45:00,57.5,55.8,29.65,ESE,111,5.0,5.0,94,0.07,,,0.38,Wunderground v.1.15,2013-09-28 13:45:00,
2013-09-28 06:50:00,57.6,55.9,29.66,SE,130,5.0,6.0,94,0.05,,,0.38,Wunderground v.1.15,2013-09-28 13:50:00,
2013-09-28 06:55:00,57.6,55.9,29.65,SSE,154,4.0,6.0,94,0.04,,,0.39,Wunderground v.1.15,2013-09-28 13:55:00,
2013-09-28 07:00:00,57.6,55.9,29.65,SSE,150,5.0,10.0,94,0.04,,,0.39,Wunderground v.1.15,2013-09-28 14:00:00,
2013-09-28 07:10:00,57.7,56.0,29.65,South,184,6.0,6.0,94,0.04,,,0.39,Wunderground v.1.15,2013-09-28 14:10:00,
2013-09-28 07:15:00,57.7,56.0,29.65,SSW,205,5.0,6.0,94,0.00,,,0.39,Wunderground v.1.15,2013-09-28 14:15:00,
2013-09-28 07:20:00,57.7,56.0,29.65,SE,146,6.0,6.0,94,0.00,,,0.40,Wunderground v.1.15,2013-09-28 14:20:00,
2013-09-28 07:25:00,57.7,56.0,29.65,SSE,159,5.0,8.0,94,0.00,,,0.40,Wunderground v.1.15,2013-09-28 14:25:00,
2013-09-28 07:30:00,57.8,56.1,29.65,SE,135,5.0,7.0,94,0.00,,,0.40,Wunderground v.1.15,2013-09-28 14:30:00,
2013-09-28 07:35:00,57.8,56.1,29.64,South,172,5.0,7.0,94,0.00,,,0.40,Wunderground v.1.15,2013-09-28 14:35:00,
2013-09-28 07:40:00,57.8,56.1,29.64,SSE,155,5.0,5.0,94,0.00,,,0.40,Wunderground v.1.15,2013-09-28 14:40:00,
2013-09-28 07:45:00,57.8,56.1,29.64,SSW,192,5.0,6.0,94,0.00,,,0.40,Wunderground v.1.15,2013-09-28 14:45:00,
2013-09-28 07:50:00,57.9,56.2,29.64,SSE,168,6.0,6.0,94,0.00,,,0.40,Wunderground v.1.15,2013-09-28 14:50:00,
2013-09-28 07:55:00,57.9,56.2,29.64,SE,139,6.0,6.0,94,0.00,,,0.40,Wunderground v.1.15,2013-09-28 14:55:00,
2013-09-28 08:00:00,58.0,56.3,29.64,South,187,6.0,6.0,94,0.00,,,0.41,Wunderground v.1.15,2013-09-28 15:00:00,
2013-09-28 08:05:00,58.0,56.3,29.64,ESE,106,6.0,6.0,94,0.00,,,0.41,Wunderground v.1.15,2013-09-28 15:05:00,
2013-09-28 08:10:00,58.0,56.3,29.63,ESE,115,6.0,16.0,94,0.00,,,0.41,Wunderground v.1.15,2013-09-28 15:10:00,
2013-09-28 08:20:00,58.1,56.4,29.63,SSE,154,5.0,5.0,94,0.00,,,0.41,Wunderground v.1.15,2013-09-28 15:20:00,
2013-09-28 08:25:00,58.1,56.4,29.63,SE,145,5.0,5.0,94,0.00,,,0.41,Wunderground v.1.15,2013-09-28 15:25:00,
2013-09-28 08:35:00,58.2,56.5,29.62,SE,133,6.0,10.0,94,0.00,,,0.42,Wunderground v.1.15,2013-09-28 15:35:00,
2013-09-28 08:40:00,58.2,56.5,29.62,SSE,165,6.0,6.0,94,0.00,,,0.42,Wunderground v.1.15,2013-09-28 15:40:00,
2013-09-28 08:45:00,58.3,56.6,29.62,South,169,6.0,10.0,94,0.00,,,0.42,Wunderground v.1.15,2013-09-28 15:45:00,
2013-09-28 08:50:00,58.3,56.6,29.63,SSE,163,6.0,9.0,94,0.00,,,0.42,Wunderground v.1.15,2013-09-28 15:50:00,
2013-09-28 09:00:00,58.4,56.7,29.62,South,180,7.0,7.0,94,0.00,,,0.43,Wunderground v.1.15,2013-09-28 16:00:00,
2013-09-28 09:05:00,58.5,56.8,29.62,South,171,8.0,8.0,94,0.00,,,0.43,Wunderground v.1.15,2013-09-28 16:05:00,
2013-09-28 09:10:00,58.5,56.8,29.62,SE,131,7.0,7.0,94,0.00,,,0.43,Wunderground v.1.15,2013-09-28 16:10:00,
2013-09-28 09:15:00,58.6,56.9,29.62,South,177,6.0,7.0,94,0.00,,,0.44,Wunderground v.1.15,2013-09-28 16:15:00,
2013-09-28 09:20:00,58.7,57.0,29.62,SSE,155,5.0,10.0,94,0.00,,,0.44,Wunderground v.1.15,2013-09-28 16:20:00,
2013-09-28 09:25:00,58.7,57.0,29.61,SSE,161,5.0,10.0,94,0.00,,,0.44,Wunderground v.1.15,2013-09-28 16:25:00,
2013-09-28 09:35:00,58.8,57.1,29.61,SE,126,4.0,9.0,94,0.00,,,0.44,Wunderground v.1.15,2013-09-28 16:35:00,
2013-09-28 09:40:00,58.8,57.1,29.62,SW,219,5.0,5.0,94,0.00,,,0.44,Wunderground v.1.15,2013-09-28 16:40:00,
2013-09-28 09:45:00,58.9,57.2,29.61,ESE,111,6.0,6.0,94,0.00,,,0.44,Wunderground v.1.15,2013-09-28 16:45:00,
2013-09-28 09:50:00,58.9,57.2,29.61,SSE,164,5.0,9.0,94,0.00,,,0.44,Wunderground v.1.15,2013-09-28 16:50:00,
2013-09-28 09:55:00,59.0,57.3,29.61,SSE,168,5.0,9.0,94,0.00,,,0.45,Wunderground v.1.15,2013-09-28 16:55:00,
2013-09-28 10:05:00,59.0,57.3,29.60,SE,128,9.0,9.0,94,0.00,,,0.45,Wunderground v.1.15,2013-09-28 17:05:00,
2013-09-28 10:10:00,59.0,57.0,29.61,ESE,109,8.0,8.0,93,0.00,,,0.45,Wunderground v.1.15,2013-09-28 17:10:00,
2013-09-28 10:15:00,59.0,57.0,29.60,South,188,8.0,8.0,93,0.00,,,0.45,Wunderground v.1.15,2013-09-28 17:15:00,
2013-09-28 10:25:00,59.0,57.0,29.60,South,174,7.0,10.0,93,0.00,,,0.46,Wunderground v.1.15,2013-09-28 17:25:00,
2013-09-28 10:30:00,59.0,57.0,29.59,SSW,194,7.0,9.0,93,0.00,,,0.46,Wunderground v.1.15,2013-09-28 17:30:00,
2013-09-28 10:35:00,59.1,57.1,29.60,SE,140,8.0,9.0,93,0.05,,,0.47,Wunderground v.1.15,2013-09-28 17:35:00,
2013-09-28 10:40:00,59.2,57.2,29.59,South,181,8.0,8.0,93,0.05,,,0.47,Wunderground v.1.15,2013-09-28 17:40:00,
2013-09-28 10:45:00,59.3,57.3,29.59,SE,140,8.0,8.0,93,0.04,,,0.47,Wunderground v.1.15,2013-09-28 17:45:00,
2013-09-28 11:00:00,59.3,57.3,29.59,South,190,7.0,15.0,93,0.13,,,0.49,Wunderground v.1.15,2013-09-28 18:00:00,
2013-09-28 11:10:00,59.3,57.3,29.60,SSW,192,8.0,8.0,93,0.18,,,0.52,Wunderground v.1.15,2013-09-28 18:10:00,
2013-09-28 11:15:00,59.3,57.3,29.60,SSE,153,7.0,8.0,93,0.30,,,0.54,Wunderground v.1.15,2013-09-28 18:15:00,
2013-09-28 11:20:00,59.3,57.3,29.60,SSW,192,5.0,5.0,93,0.18,,,0.56,Wunderground v.1.15,2013-09-28 18:20:00,
2013-09-28 11:25:00,59.3,57.3,29.60,SSW,213,5.0,5.0,93,0.16,,,0.57,Wunderground v.1.15,2013-09-28 18:25:00,
2013-09-28 11:30:00,59.4,57.4,29.60,SE,134,5.0,5.0,93,0.24,,,0.59,Wunderground v.1.15,2013-09-28 18:30:00,
2013-09-28 11:35:00,59.4,57.4,29.60,SE,141,5.0,5.0,93,0.24,,,0.61,Wunderground v.1.15,2013-09-28 18:35:00,
2013-09-28 11:45:00,59.4,57.4,29.60,SE,136,6.0,7.0,93,0.17,,,0.65,Wunderground v.1.15,2013-09-28 18:45:00,
2013-09-28 11:50:00,59.4,57.4,29.60,ESE,119,6.0,6.0,93,0.09,,,0.66,Wunderground v.1.15,2013-09-28 18:50:00,
2013-09-28 11:55:00,59.5,57.5,29.59,SE,126,5.0,6.0,93,0.09,,,0.66,Wunderground v.1.15,2013-09-28 18:55:00,
2013-09-28 12:00:00,59.6,57.6,29.59,South,175,6.0,11.0,93,0.06,,,0.66,Wunderground v.1.15,2013-09-28 19:00:00,
2013-09-28 12:10:00,59.6,57.6,29.58,SE,144,7.0,7.0,93,0.00,,,0.66,Wunderground v.1.15,2013-09-28 19:10:00,
2013-09-28 12:15:00,59.7,57.7,29.58,SE,144,6.0,7.0,93,0.00,,,0.66,Wunderground v.1.15,2013-09-28 19:15:00,
2013-09-28 12:20:00,59.7,57.7,29.57,South,174,6.0,6.0,93,0.00,,,0.67,Wunderground v.1.15,2013-09-28 19:20:00,
2013-09-28 12:25:00,59.8,57.8,29.57,SE,138,6.0,6.0,93,0.00,,,0.67,Wunderground v.1.15,2013-09-28 19:25:00,
2013-09-28 12:30:00,59.9,57.9,29.57,SSE,152,6.0,10.0,93,0.00,,,0.67,Wunderground v.1.15,2013-09-28 19:30:00,
2013-09-28 12:35:00,59.9,57.9,29.57,SSE,165,5.0,10.0,93,0.00,,,0.67,Wunderground v.1.15,2013-09-28 19:35:00,
2013-09-28 12:50:00,60.1,58.1,29.56,ESE,120,7.0,11.0,93,0.00,,,0.68,Wunderground v.1.15,2013-09-28 19:50:00,
2013-09-28 12:55:00,60.1,57.8,29.56,SSE,163,6.0,11.0,92,0.00,,,0.68,Wunderground v.1.15,2013-09-28 19:55:00,
2013-09-28 13:05:00,60.2,57.9,29.55,SE,145,7.0,10.0,92,0.10,,,0.70,Wunderground v.1.15,2013-09-28 20:05:00,
2013-09-28 13:10:00,60.2,57.9,29.55,South,170,8.0,8.0,92,0.08,,,0.70,Wunderground v.1.15,2013-09-28 20:10:00,
2013-09-28 13:15:00,60.3,58.0,29.54,South,173,8.0,8.0,92,0.05,,,0.70,Wunderground v.1.15,2013-09-28 20:15:00,
2013-09-28 13:25:00,60.2,57.9,29.54,SSE,149,7.0,7.0,92,0.13,,,0.72,Wunderground v.1.15,2013-09-28 20:25:00,
2013-09-28 13:30:00,60.2,57.9,29.54,SSE,161,6.0,6.0,92,0.11,,,0.72,Wunderground v.1.15,2013-09-28 20:30:00,
2013-09-28 13:35:00,60.2,57.9,29.54,ESE,123,6.0,7.0,92,0.09,,,0.73,Wunderground v.1.15,2013-09-28 20:35:00,
2013-09-28 13:45:00,60.3,58.0,29.53,SSW,200,8.0,17.0,92,0.07,,,0.74,Wunderground v.1.15,2013-09-28 20:45:00,
2013-09-28 13:55:00,60.3,58.0,29.52,SE,135,7.0,7.0,92,0.05,,,0.75,Wunderground v.1.15,2013-09-28 20:55:00,
2013-09-28 14:00:00,60.3,58.3,29.52,SE,144,8.0,22.0,93,0.05,,,0.75,Wunderground v.1.15,2013-09-28 21:00:00,
2013-09-28 14:05:00,60.4,58.4,29.52,SE,135,9.0,22.0,93,0.04,,,0.75,Wunderground v.1.15,2013-09-28 21:05:00,
2013-09-28 14:10:00,60.6,58.6,29.51,South,174,7.0,7.0,93,0.00,,,0.75,Wunderground v.1.15,2013-09-28 21:10:00,
2013-09-28 14:20:00,60.7,58.4,29.51,SE,143,7.0,12.0,92,0.00,,,0.76,Wunderground v.1.15,2013-09-28 21:20:00,
2013-09-28 14:25:00,60.7,58.4,29.51,SSE,156,8.0,12.0,92,0.00,,,0.76,Wunderground v.1.15,2013-09-28 21:25:00,
2013-09-28 14:30:00,60.8,58.5,29.51,SSE,148,9.0,20.0,92,0.04,,,0.77,Wunderground v.1.15,2013-09-28 21:30:00,
2013-09-28 14:35:00,60.8,58.5,29.50,SW,221,9.0,20.0,92,0.04,,,0.77,Wunderground v.1.15,2013-09-28 21:35:00,
2013-09-28 14:40:00,60.8,58.5,29.50,SSE,147,9.0,11.0,92,0.05,,,0.78,Wunderground v.1.15,2013-09-28 21:40:00,
2013-09-28 14:50:00,60.9,58.6,29.49,ESE,123,9.0,9.0,92,0.05,,,0.78,Wunderground v.1.15,2013-09-28 21:50:00,
2013-09-28 14:55:00,60.9,58.6,29.49,SSE,152,8.0,9.0,92,0.04,,,0.78,Wunderground v.1.15,2013-09-28 21:55:00,
2013-09-28 15:00:00,60.9,58.6,29.49,SSE,162,9.0,14.0,92,0.04,,,0.79,Wunderground v.1.15,2013-09-28 22:00:00,
2013-09-28 15:05:00,60.9,58.6,29.49,South,190,10.0,14.0,92,0.04,,,0.79,Wunderground v.1.15,2013-09-28 22:05:00,
2013-09-28 15:10:00,60.9,58.6,29.49,SSE,153,10.0,10.0,92,0.04,,,0.80,Wunderground v.1.15,2013-09-28 22:10:00,
2013-09-28 15:20:00,60.8,58.2,29.48,SSE,167,8.0,8.0,91,0.22,,,0.85,Wunderground v.1.15,2013-09-28 22:20:00,
2013-09-28 15:25:00,60.7,58.4,29.48,SSW,195,7.0,14.0,92,0.15,,,0.86,Wunderground v.1.15,2013-09-28 22:25:00,
2013-09-28 15:30:00,60.7,58.4,29.48,South,182,8.0,8.0,92,0.10,,,0.87,Wunderground v.1.15,2013-09-28 22:30:00,
2013-09-28 15:40:00,60.7,58.4,29.48,SSE,159,9.0,9.0,92,0.14,,,0.89,Wunderground v.1.15,2013-09-28 22:40:00,
2013-09-28 15:45:00,60.6,58.3,29.48,South,180,8.0,9.0,92,0.31,,,0.91,Wunderground v.1.15,2013-09-28 22:45:00,
2013-09-28 15:50:00,60.5,58.2,29.47,SE,146,8.0,8.0,92,0.26,,,0.93,Wunderground v.1.15,2013-09-28 22:50:00,
2013-09-28 16:00:00,60.5,58.2,29.47,SE,135,8.0,8.0,92,0.31,,,0.96,Wunderground v.1.15,2013-09-28 23:00:00,
2013-09-28 16:05:00,60.4,58.1,29.46,SE,144,8.0,8.0,92,0.27,,,0.98,Wunderground v.1.15,2013-09-28 23:05:00,
2013-09-28 16:15:00,60.5,58.2,29.45,SSE,164,9.0,14.0,92,0.07,,,0.99,Wunderground v.1.15,2013-09-28 23:15:00,
2013-09-28 16:20:00,60.5,58.2,29.45,SSE,150,9.0,13.0,92,0.05,,,0.99,Wunderground v.1.15,2013-09-28 23:20:00,
2013-09-28 16:30:00,60.4,58.1,29.44,SE,141,8.0,8.0,92,0.05,,,1.00,Wunderground v.1.15,2013-09-28 23:30:00,
2013-09-28 16:35:00,60.4,58.1,29.44,ESE,105,9.0,9.0,92,0.04,,,1.00,Wunderground v.1.15,2013-09-28 23:35:00,
2013-09-28 16:45:00,60.4,58.1,29.45,SSW,206,8.0,16.0,92,0.04,,,1.01,Wunderground v.1.15,2013-09-28 23:45:00,
2013-09-28 16:50:00,60.4,58.1,29.44,SSE,150,8.0,8.0,92,0.05,,,1.02,Wunderground v.1.15,2013-09-28 23:50:00,
2013-09-28 17:00:00,60.3,58.0,29.44,SSE,161,9.0,9.0,92,0.17,,,1.07,Wunderground v.1.15,2013-09-29 00:00:00,
2013-09-28 17:05:00,60.3,58.0,29.44,SSE,167,8.0,9.0,92,0.15,,,1.08,Wunderground v.1.15,2013-09-29 00:05:00,
2013-09-28 17:10:00,60.2,57.9,29.43,South,171,7.0,11.0,92,0.17,,,1.09,Wunderground v.1.15,2013-09-29 00:10:00,
2013-09-28 17:15:00,60.2,57.9,29.44,SSE,164,8.0,11.0,92,0.16,,,1.10,Wunderground v.1.15,2013-09-29 00:15:00,
2013-09-28 17:25:00,60.0,57.7,29.47,NNW,329,7.0,9.0,92,0.06,,,1.10,Wunderground v.1.15,2013-09-29 00:25:00,
2013-09-28 17:30:00,58.6,55.7,29.47,NNW,330,6.0,11.0,90,1.92,,,1.21,Wunderground v.1.15,2013-09-29 00:30:00,
2013-09-28 17:35:00,57.3,54.4,29.47,SW,230,4.0,11.0,90,0.85,,,1.31,Wunderground v.1.15,2013-09-29 00:35:00,
2013-09-28 17:40:00,56.4,53.5,29.46,West,259,3.0,3.0,90,0.33,,,1.35,Wunderground v.1.15,2013-09-29 00:40:00,
2013-09-28 17:50:00,55.4,52.5,29.46,North,350,3.0,3.0,90,0.10,,,1.37,Wunderground v.1.15,2013-09-29 00:50:00,
2013-09-28 17:55:00,55.3,52.4,29.47,North,349,1.0,3.0,90,0.06,,,1.38,Wunderground v.1.15,2013-09-29 00:55:00,
2013-09-28 18:00:00,55.0,52.1,29.46,SSW,213,2.0,3.0,90,0.06,,,1.38,Wunderground v.1.15,2013-09-29 01:00:00,
2013-09-28 18:15:00,54.4,51.5,29.49,WSW,248,2.0,4.0,90,0.00,,,1.39,Wunderground v.1.15,2013-09-29 01:15:00,
2013-09-28 18:20:00,54.2,51.0,29.49,NW,314,3.0,5.0,89,0.19,,,1.40,Wunderground v.1.15,2013-09-29 01:20:00,
2013-09-28 18:25:00,54.0,50.8,29.46,ENE,71,3.0,5.0,89,0.15,,,1.41,Wunderground v.1.15,2013-09-29 01:25:00,
2013-09-28 18:30:00,53.8,50.6,29.47,WSW,241,2.0,2.0,89,0.12,,,1.42,Wunderground v.1.15,2013-09-29 01:30:00,
2013-09-28 18:35:00,53.7,50.5,29.47,WSW,240,1.0,2.0,89,0.06,,,1.42,Wunderground v.1.15,2013-09-29 01:35:00,
2013-09-28 18:40:00,53.7,50.8,29.48,WSW,240,1.0,1.0,90,0.04,,,1.42,Wunderground v.1.15,2013-09-29 01:40:00,
2013-09-28 18:50:00,53.5,50.6,29.48,WSW,240,1.0,1.0,90,0.09,,,1.44,Wunderground v.1.15,2013-09-29 01:50:00,
2013-09-28 18:55:00,53.5,50.6,29.49,WSW,240,1.0,1.0,90,0.14,,,1.45,Wunderground v.1.15,2013-09-29 01:55:00,
2013-09-28 19:00:00,53.5,50.6,29.49,WSW,240,0.0,0.0,90,0.09,,,1.45,Wunderground v.1.15,2013-09-29 02:00:00,
2013-09-28 19:05:00,53.3,50.4,29.49,WSW,240,1.0,1.0,90,0.05,,,1.45,Wunderground v.1.15,2013-09-29 02:05:00,
2013-09-28 19:15:00,53.2,50.6,29.49,SW,236,1.0,2.0,91,0.16,,,1.48,Wunderground v.1.15,2013-09-29 02:15:00,
2013-09-28 19:20:00,53.2,50.6,29.49,SW,235,1.0,1.0,91,0.15,,,1.49,Wunderground v.1.15,2013-09-29 02:20:00,
2013-09-28 19:25:00,53.2,50.6,29.49,SW,236,1.0,1.0,91,0.08,,,1.49,Wunderground v.1.15,2013-09-29 02:25:00,
2013-09-28 19:35:00,53.2,50.6,29.49,SW,236,0.0,0.0,91,0.06,,,1.50,Wunderground v.1.15,2013-09-29 02:35:00,
2013-09-28 19:45:00,53.1,50.5,29.50,SW,236,0.0,0.0,91,0.04,,,1.51,Wunderground v.1.15,2013-09-29 02:45:00,
2013-09-28 19:55:00,53.1,50.5,29.50,SW,236,1.0,1.0,91,0.09,,,1.53,Wunderground v.1.15,2013-09-29 02:55:00,
2013-09-28 20:00:00,53.0,50.4,29.50,SW,225,1.0,1.0,91,0.12,,,1.54,Wunderground v.1.15,2013-09-29 03:00:00,
2013-09-28 20:05:00,53.0,50.7,29.50,SW,223,1.0,1.0,92,0.09,,,1.54,Wunderground v.1.15,2013-09-29 03:05:00,
2013-09-28 20:15:00,53.0,50.7,29.50,ESE,119,2.0,3.0,92,0.06,,,1.55,Wunderground v.1.15,2013-09-29 03:15:00,
2013-09-28 20:20:00,53.0,50.7,29.50,SE,136,3.0,3.0,92,0.06,,,1.56,Wunderground v.1.15,2013-09-29 03:20:00,
2013-09-28 20:25:00,52.9,50.6,29.50,SE,129,3.0,3.0,92,0.06,,,1.56,Wunderground v.1.15,2013-09-29 03:25:00,
2013-09-28 20:35:00,52.9,50.6,29.49,SE,129,1.0,3.0,92,0.04,,,1.56,Wunderground v.1.15,2013-09-29 03:35:00,
2013-09-28 20:45:00,52.9,50.6,29.51,SE,130,1.0,1.0,92,0.00,,,1.56,Wunderground v.1.15,2013-09-29 03:45:00,
2013-09-28 20:50:00,52.8,50.5,29.52,SE,145,2.0,2.0,92,0.00,,,1.56,Wunderground v.1.15,2013-09-29 03:50:00,
2013-09-28 20:55:00,52.8,50.5,29.52,SSE,152,2.0,2.0,92,0.00,,,1.56,Wunderground v.1.15,2013-09-29 03:55:00,
2013-09-28 21:00:00,52.7,50.4,29.52,SSE,153,1.0,1.0,92,0.00,,,1.56,Wunderground v.1.15,2013-09-29 04:00:00,
2013-09-28 21:05:00,52.7,50.4,29.53,SSE,152,1.0,1.0,92,0.00,,,1.56,Wunderground v.1.15,2013-09-29 04:05:00,
2013-09-28 21:10:00,52.6,50.3,29.53,SSE,153,1.0,1.0,92,0.00,,,1.56,Wunderground v.1.15,2013-09-29 04:10:00,
2013-09-28 21:20:00,52.7,50.4,29.52,SE,130,2.0,2.0,92,0.00,,,1.56,Wunderground v.1.15,2013-09-29 04:20:00,
2013-09-28 21:25:00,52.7,50.4,29.52,SE,141,2.0,2.0,92,0.00,,,1.56,Wunderground v.1.15,2013-09-29 04:25:00,
2013-09-28 21:30:00,52.8,50.5,29.53,SSE,157,1.0,1.0,92,0.00,,,1.56,Wunderground v.1.15,2013-09-29 04:30:00,
2013-09-28 21:35:00,52.8,50.5,29.53,SSE,157,2.0,2.0,92,0.00,,,1.56,Wunderground v.1.15,2013-09-29 04:35:00,
2013-09-28 21:40:00,52.8,50.5,29.53,SSE,157,1.0,2.0,92,0.00,,,1.56,Wunderground v.1.15,2013-09-29 04:40:00,
2013-09-28 21:45:00,52.8,50.5,29.54,SSE,157,2.0,2.0,92,0.00,,,1.56,Wunderground v.1.15,2013-09-29 04:45:00,
2013-09-28 21:50:00,52.8,50.5,29.54,SSE,148,2.0,4.0,92,0.00,,,1.56,Wunderground v.1.15,2013-09-29 04:50:00,
2013-09-28 21:55:00,52.9,50.6,29.54,SSE,156,3.0,4.0,92,0.00,,,1.56,Wunderground v.1.15,2013-09-29 04:55:00,
2013-09-28 22:05:00,52.9,50.6,29.54,SE,145,3.0,6.0,92,0.00,,,1.56,Wunderground v.1.15,2013-09-29 05:05:00,
2013-09-28 22:10:00,52.9,50.6,29.54,SSE,147,3.0,3.0,92,0.00,,,1.56,Wunderground v.1.15,2013-09-29 05:10:00,
2013-09-28 22:15:00,52.8,50.5,29.54,SE,139,3.0,4.0,92,0.00,,,1.57,Wunderground v.1.15,2013-09-29 05:15:00,
2013-09-28 22:20:00,52.7,50.4,29.54,SSE,165,3.0,3.0,92,0.08,,,1.58,Wunderground v.1.15,2013-09-29 05:20:00,
2013-09-28 22:30:00,52.7,50.4,29.54,SSE,153,2.0,2.0,92,0.05,,,1.58,Wunderground v.1.15,2013-09-29 05:30:00,
2013-09-28 22:35:00,52.7,50.4,29.54,SSE,157,2.0,2.0,92,0.04,,,1.59,Wunderground v.1.15,2013-09-29 05:35:00,
2013-09-28 22:40:00,52.7,50.4,29.55,SSE,158,1.0,1.0,92,0.04,,,1.59,Wunderground v.1.15,2013-09-29 05:40:00,
2013-09-28 22:45:00,52.7,50.4,29.55,SSE,159,1.0,3.0,92,0.04,,,1.59,Wunderground v.1.15,2013-09-29 05:45:00,
2013-09-28 22:50:00,52.7,50.4,29.54,SSE,153,2.0,2.0,92,0.00,,,1.59,Wunderground v.1.15,2013-09-29 05:50:00,
2013-09-28 23:00:00,52.6,50.6,29.55,SSE,153,2.0,2.0,93,0.00,,,1.59,Wunderground v.1.15,2013-09-29 06:00:00,
2013-09-28 23:05:00,52.7,50.7,29.55,SSE,157,3.0,3.0,93,0.00,,,1.59,Wunderground v.1.15,2013-09-29 06:05:00,
2013-09-28 23:10:00,52.6,50.6,29.55,SSE,149,2.0,2.0,93,0.00,,,1.59,Wunderground v.1.15,2013-09-29 06:10:00,
2013-09-28 23:25:00,52.4,50.4,29.55,South,179,1.0,3.0,93,0.00,,,1.59,Wunderground v.1.15,2013-09-29 06:25:00,
2013-09-28 23:40:00,52.3,50.3,29.55,South,178,2.0,2.0,93,0.00,,,1.59,Wunderground v.1.15,2013-09-29 06:40:00,
2013-09-28 23:45:00,52.2,50.2,29.56,South,175,1.0,2.0,93,0.00,,,1.59,Wunderground v.1.15,2013-09-29 06:45:00,
2013-09-28 23:50:00,52.2,50.2,29.56,SE,137,2.0,2.0,93,0.00,,,1.59,Wunderground v.1.15,2013-09-29 06:50:00,
2013-09-28 23:55:00,52.2,50.2,29.56,SE,138,2.0,2.0,93,0.00,,,1.59,Wunderground v.1.15,2013-09-29 06:55:00,